TimeCST,TemperatureF,Dew PointF,Humidity,Sea Level PressureIn,VisibilityMPH,Wind Direction,Wind SpeedMPH,Gust SpeedMPH,PrecipitationIn,Events,Conditions,WindDirDegrees,DateUTC
12:51 AM,44.6,37.4,76,30.32,10.0,NNE,5.8,-,N/A,,Clear,20,2013-01-07 06:51:00
1:51 AM,42.1,36.0,79,30.30,10.0,North,3.5,-,N/A,,Clear,10,2013-01-07 07:51:00
2:51 AM,43.0,37.9,82,30.27,10.0,North,9.2,-,N/A,,Clear,10,2013-01-07 08:51:00
3:51 AM,42.1,37.0,82,30.27,10.0,North,9.2,-,N/A,,Clear,10,2013-01-07 09:51:00
4:51 AM,39.9,36.0,86,30.24,10.0,North,8.1,-,N/A,,Clear,10,2013-01-07 10:51:00
5:51 AM,42.1,37.0,82,30.24,10.0,NNE,8.1,-,N/A,,Clear,20,2013-01-07 11:51:00
6:51 AM,41.0,37.0,86,30.24,10.0,North,8.1,-,N/A,,Clear,10,2013-01-07 12:51:00
7:51 AM,45.0,39.9,82,30.24,10.0,NNE,9.2,-,N/A,,Clear,30,2013-01-07 13:51:00
8:51 AM,48.9,42.1,77,30.25,9.0,NE,8.1,-,N/A,,Clear,50,2013-01-07 14:51:00
9:51 AM,54.0,44.1,69,30.26,10.0,NE,8.1,-,N/A,,Clear,50,2013-01-07 15:51:00
10:51 AM,60.8,46.4,59,30.25,10.0,NNE,8.1,-,N/A,,Clear,30,2013-01-07 16:51:00
11:51 AM,63.0,46.9,56,30.22,10.0,ENE,10.4,-,N/A,,Clear,60,2013-01-07 17:51:00
12:51 PM,64.0,48.0,56,30.15,10.0,East,12.7,-,N/A,,Clear,80,2013-01-07 18:51:00
1:51 PM,64.9,50.0,58,30.12,10.0,East,15.0,-,N/A,,Clear,80,2013-01-07 19:51:00
2:51 PM,64.0,51.1,63,30.09,10.0,East,12.7,-,N/A,,Clear,80,2013-01-07 20:51:00
3:51 PM,63.0,52.0,67,30.10,10.0,East,12.7,-,N/A,,Scattered Clouds,80,2013-01-07 21:51:00
4:30 PM,60.8,51.8,72,30.10,10.0,East,13.8,-,N/A,,Mostly Cloudy,80,2013-01-07 22:30:00
4:51 PM,60.1,52.0,75,30.10,10.0,ENE,12.7,-,N/A,,Overcast,70,2013-01-07 22:51:00
5:11 PM,60.8,51.8,72,30.10,10.0,East,13.8,-,N/A,,Overcast,80,2013-01-07 23:11:00
5:44 PM,59.0,53.6,82,30.10,9.0,ENE,15.0,-,N/A,,Overcast,70,2013-01-07 23:44:00
5:51 PM,59.0,53.1,81,30.10,10.0,ENE,15.0,-,N/A,,Overcast,70,2013-01-07 23:51:00
6:02 PM,59.0,53.6,82,30.09,10.0,ENE,15.0,-,N/A,,Overcast,70,2013-01-08 00:02:00
6:51 PM,57.9,54.0,87,30.10,5.0,NE,13.8,-,0.00,,Light Drizzle,40,2013-01-08 00:51:00
7:51 PM,57.0,54.0,89,30.08,4.0,NE,12.7,-,0.00,Rain,Light Rain,50,2013-01-08 01:51:00
8:51 PM,57.0,54.0,89,30.06,5.0,ENE,9.2,-,0.01,,Light Drizzle,60,2013-01-08 02:51:00
9:51 PM,57.9,54.0,87,30.05,5.0,ENE,17.3,-,0.00,,Overcast,70,2013-01-08 03:51:00
10:51 PM,57.9,55.0,90,30.03,6.0,ENE,15.0,-,N/A,,Overcast,70,2013-01-08 04:51:00
11:51 PM,57.9,55.0,90,30.00,5.0,ENE,15.0,-,N/A,,Overcast,70,2013-01-08 05:51:00